[keps] orb09351.amsat

Ray Hoad r.hoad at att.net
Thu Dec 17 19:40:18 PST 2009


SB KEPS @ AMSAT  $ORB09351.O
Orbital Elements  09351.OSCAR

HR AMSAT ORBITAL ELEMENTS FOR OSCAR SATELLITES
FROM WA5QGD FORT WORTH,TX December 17, 2009
Send Subscribe/unsubscribe to KEPS at 
http://www.amsat.org/mailman/listinfo/keps
BID: ORB09351.O
TO ALL RADIO AMATEURS BT

Satellite: AO-07
Catalog number: 07530
Epoch time:      09351.64335043
Element set:     656
Inclination:      101.4135 deg
RA of node:       009.4871 deg
Eccentricity:    0.0011853
Arg of perigee:   270.3211 deg
Mean anomaly:     089.6501 deg
Mean motion:   12.53577207 rev/day
Decay rate:       -2.7e-07 rev/day^2
Epoch rev:           60570
Checksum:              270

Satellite: FO-29
Catalog number: 24278
Epoch time:      09350.88591972
Element set:     201
Inclination:      098.5233 deg
RA of node:       200.1089 deg
Eccentricity:    0.0349863
Arg of perigee:   236.7028 deg
Mean anomaly:     120.0150 deg
Mean motion:   13.52946594 rev/day
Decay rate:       -2.1e-07 rev/day^2
Epoch rev:           65845
Checksum:              314

Satellite: SO-33
Catalog number: 25509
Epoch time:      09349.43685421
Element set:    0609
Inclination:      031.4287 deg
RA of node:       107.5870 deg
Eccentricity:    0.0353803
Arg of perigee:   123.2509 deg
Mean anomaly:     240.2564 deg
Mean motion:   14.28272870 rev/day
Decay rate:        6.9e-07 rev/day^2
Epoch rev:           58176
Checksum:              314

Satellite: RS-22
Catalog number: 27939
Epoch time:      09350.63019888
Element set:    0964
Inclination:      097.9161 deg
RA of node:       218.5664 deg
Eccentricity:    0.0012600
Arg of perigee:   278.1446 deg
Mean anomaly:     081.8335 deg
Mean motion:   14.63365620 rev/day
Decay rate:        3.3e-07 rev/day^2
Epoch rev:           33225
Checksum:              315

Satellite: VO-52
Catalog number: 28650
Epoch time:      09350.73157977
Element set:    0387
Inclination:      097.7218 deg
RA of node:       046.0397 deg
Eccentricity:    0.0027753
Arg of perigee:   151.2281 deg
Mean anomaly:     209.0500 deg
Mean motion:   14.81657206 rev/day
Decay rate:       4.76e-06 rev/day^2
Epoch rev:           24967
Checksum:              327

Satellite: SO-67
Catalog number: 35870
Epoch time:      09351.69636703
Element set:     267
Inclination:      097.3599 deg
RA of node:       040.0046 deg
Eccentricity:    0.0011168
Arg of perigee:   342.3195 deg
Mean anomaly:     164.3158 deg
Mean motion:   15.22886949 rev/day
Decay rate:       4.45e-06 rev/day^2
Epoch rev:            1384
Checksum:              330

Satellite: XW-1
Catalog number: 36122
Epoch time:      09351.81668790
Element set:      11
Inclination:      100.4984 deg
RA of node:       048.8858 deg
Eccentricity:    0.0007078
Arg of perigee:   033.0791 deg
Mean anomaly:     327.0545 deg
Mean motion:   13.16281805 rev/day
Decay rate:       -4.5e-07 rev/day^2
Epoch rev:              35
Checksum:              282

/EX
SB KEPS @ AMSAT  $ORB09351.D
Orbital Elements  09351.MICROS

HR AMSAT ORBITAL ELEMENTS FOR THE MICROSATS
FROM WA5QGD FORT WORTH,TX December 17, 2009
Send Subscribe/unsubscribe to KEPS at 
http://www.amsat.org/mailman/listinfo/keps
BID: ORB09351.D
TO ALL RADIO AMATEURS BT

Satellite: UO-11
Catalog number: 14781
Epoch time:      09349.70834031
Element set:    0128
Inclination:      098.0839 deg
RA of node:       035.6321 deg
Eccentricity:    0.0010222
Arg of perigee:   110.0211 deg
Mean anomaly:     250.2182 deg
Mean motion:   14.79754460 rev/day
Decay rate:       2.81e-06 rev/day^2
Epoch rev:           38467
Checksum:              271

Satellite: AO-16
Catalog number: 20439
Epoch time:      09350.87244367
Element set:    0775
Inclination:      098.3062 deg
RA of node:       311.2153 deg
Eccentricity:    0.0010887
Arg of perigee:   353.3541 deg
Mean anomaly:     006.7497 deg
Mean motion:   14.31842579 rev/day
Decay rate:        2.1e-07 rev/day^2
Epoch rev:           03929
Checksum:              308

Satellite: LO-19
Catalog number: 20442
Epoch time:      09350.82975215
Element set:    0683
Inclination:      098.2680 deg
RA of node:       317.7174 deg
Eccentricity:    0.0011568
Arg of perigee:   348.4243 deg
Mean anomaly:     011.6675 deg
Mean motion:   14.32076165 rev/day
Decay rate:        4.1e-07 rev/day^2
Epoch rev:           03945
Checksum:              305

Satellite: AO-27
Catalog number: 22825
Epoch time:      09351.56057320
Element set:     410
Inclination:      098.4632 deg
RA of node:       299.4358 deg
Eccentricity:    0.0009226
Arg of perigee:   085.3611 deg
Mean anomaly:     274.8620 deg
Mean motion:   14.29280776 rev/day
Decay rate:       -8.8e-07 rev/day^2
Epoch rev:           84610
Checksum:              316

Satellite: IO-26
Catalog number: 22826
Epoch time:      09350.67847836
Element set:     144
Inclination:      098.4559 deg
RA of node:       299.2526 deg
Eccentricity:    0.0009876
Arg of perigee:   082.1846 deg
Mean anomaly:     278.0458 deg
Mean motion:   14.29534847 rev/day
Decay rate:        6.0e-08 rev/day^2
Epoch rev:           84608
Checksum:              362

Satellite: GO-32
Catalog number: 25397
Epoch time:      09351.64198502
Element set:      65
Inclination:      098.3171 deg
RA of node:       004.0658 deg
Eccentricity:    0.0002104
Arg of perigee:   083.7661 deg
Mean anomaly:     276.3757 deg
Mean motion:   14.23168905 rev/day
Decay rate:       1.25e-06 rev/day^2
Epoch rev:           59422
Checksum:              301

Satellite: NO-44
Catalog number: 26931
Epoch time:      09350.46570941
Element set:    0339
Inclination:      067.0530 deg
RA of node:       314.7354 deg
Eccentricity:    0.0007070
Arg of perigee:   267.4706 deg
Mean anomaly:     092.5574 deg
Mean motion:   14.29576967 rev/day
Decay rate:       -1.9e-07 rev/day^2
Epoch rev:           42863
Checksum:              324

Satellite: SO-50
Catalog number: 27607
Epoch time:      09350.66952320
Element set:    0056
Inclination:      064.5571 deg
RA of node:       190.8664 deg
Eccentricity:    0.0045358
Arg of perigee:   155.6024 deg
Mean anomaly:     204.7229 deg
Mean motion:   14.71481259 rev/day
Decay rate:      -1.49e-06 rev/day^2
Epoch rev:           37552
Checksum:              313

Satellite: CO-55
Catalog number: 27844
Epoch time:      09350.61634666
Element set:     735
Inclination:      098.7117 deg
RA of node:       357.2036 deg
Eccentricity:    0.0009934
Arg of perigee:   342.3492 deg
Mean anomaly:     017.7353 deg
Mean motion:   14.20673214 rev/day
Decay rate:        6.6e-07 rev/day^2
Epoch rev:           33516
Checksum:              313

Satellite: CO-57
Catalog number: 27848
Epoch time:      09350.54913490
Element set:    0686
Inclination:      098.7165 deg
RA of node:       356.2076 deg
Eccentricity:    0.0009951
Arg of perigee:   347.3964 deg
Mean anomaly:     012.6998 deg
Mean motion:   14.20470549 rev/day
Decay rate:        4.3e-07 rev/day^2
Epoch rev:           33511
Checksum:              340

Satellite: AO-51
Catalog number: 28375
Epoch time:      09350.55781696
Element set:    0557
Inclination:      098.0527 deg
RA of node:       349.5531 deg
Eccentricity:    0.0083692
Arg of perigee:   292.3689 deg
Mean anomaly:     066.8642 deg
Mean motion:   14.40662665 rev/day
Decay rate:        1.2e-07 rev/day^2
Epoch rev:           28721
Checksum:              346

Satellite: CO-56
Catalog number: 28941
Epoch time:      09297.68475575
Element set:     556
Inclination:      098.0955 deg
RA of node:       138.9518 deg
Eccentricity:    0.0011688
Arg of perigee:   319.8691 deg
Mean anomaly:     040.7485 deg
Mean motion:   16.46998778 rev/day
Decay rate:  1.4491492e-01 rev/day^2
Epoch rev:           20790
Checksum:              407

Satellite: GENESAT1
Catalog number: 29655
Epoch time:      09350.73253449
Element set:    0900
Inclination:      040.0176 deg
RA of node:       115.7587 deg
Eccentricity:    0.0004911
Arg of perigee:   043.8333 deg
Mean anomaly:     316.2871 deg
Mean motion:   15.70937684 rev/day
Decay rate:     2.3260e-04 rev/day^2
Epoch rev:           17113
Checksum:              293

Satellite: CP3
Catalog number: 31129
Epoch time:      09351.59387825
Element set:     400
Inclination:      097.9663 deg
RA of node:       035.6531 deg
Eccentricity:    0.0103364
Arg of perigee:   076.8585 deg
Mean anomaly:     284.4126 deg
Mean motion:   14.52191534 rev/day
Decay rate:       1.41e-06 rev/day^2
Epoch rev:           14150
Checksum:              295

Satellite: CO-65
Catalog number: 32785
Epoch time:      09351.83215884
Element set:     553
Inclination:      097.9232 deg
RA of node:       054.0532 deg
Eccentricity:    0.0015189
Arg of perigee:   150.7703 deg
Mean anomaly:     209.4351 deg
Mean motion:   14.81557125 rev/day
Decay rate:       2.48e-06 rev/day^2
Epoch rev:            8863
Checksum:              316

Satellite: KKS-1
Catalog number: 33493
Epoch time:      09351.70056112
Element set:      32
Inclination:      098.0698 deg
RA of node:       104.8870 deg
Eccentricity:    0.0020300
Arg of perigee:   011.7725 deg
Mean anomaly:     348.3964 deg
Mean motion:   14.80799552 rev/day
Decay rate:       2.98e-06 rev/day^2
Epoch rev:            4862
Checksum:              300

Satellite: SOHLA-1
Catalog number: 33496
Epoch time:      09350.80976255
Element set:    0977
Inclination:      098.0500 deg
RA of node:       097.4030 deg
Eccentricity:    0.0007723
Arg of perigee:   064.7854 deg
Mean anomaly:     295.4146 deg
Mean motion:   14.69459634 rev/day
Decay rate:        3.0e-07 rev/day^2
Epoch rev:           04809
Checksum:              323

/EX
SB KEPS @ AMSAT  $ORB09351.W
Orbital Elements  09351.WEATHER

HR AMSAT ORBITAL ELEMENTS FOR WEATHER SATELLITES
FROM WA5QGD FORT WORTH,TX December 17, 2009
Send Subscribe/unsubscribe to KEPS at 
http://www.amsat.org/mailman/listinfo/keps
BID: ORB09351.W
TO ALL RADIO AMATEURS BT

